星链-32587 (STARLINK-32587)

导读

STARLINK-32587是美国太空探索技术公司SpaceX星链星座的成员卫星,于2024年11月30日发射,旨在为全球提供高速低延迟卫星互联网服务,覆盖偏远、网络基础设施匮乏区域。该卫星运行于近地轨道,星链系统通过大规模星座组网,可支撑流媒体点播、视频通话、在线游戏等应用,目前已成为全球规模最大的卫星互联网星座,持续推动全球互联网覆盖的普惠化。

基本信息
目录编号:
62180
目录名称:
STARLINK-32587
国际标识:
2024-225T
轨道中心:
EARTH
卫星名称:
星链-32587
卫星全名:
星链-32587 (STARLINK-32587)
卫星状态:
在轨 (已飞行564 天)
发射日期:
2024-11-30 UTC
国别 :
美国 (US)
星等 :
--
轨道信息
数据来源 国际轨道数据 AOE轨道数据
星历时间 2026-06-17T19:17:55+0800
7小时前
查看轨道信息
2026-06-11T11:00:00+0800
6天前
查看轨道信息
半长轴 6950.18km 6950.195km
偏心率 0.0003553 0.0003252
轨道倾角 70.002° 70.001°
近地点辐角 266.757° 270.341°
升交点赤经 272.689° 288.687°
平近点角 93.318° 70.440°
近地点 569.573km 569.797km
远地点 574.513km 574.319km
周期 96.107分钟 96.107分钟
每日圈数 14.983344 14.983294
详细信息
固有亮度:
5
最大亮度:
2.5
卫星平台:
Starlink V1.0
覆盖范围:
全球
运营商:
太空探索技术公司
运营商所在国:
美国
制造商(研发单位):
太空探索技术公司
制造商所在国:
美国
使用方式:
暂无
卫星简介
Starlink 计划是 SpaceX 推出的全球卫星互联网项目,通过发射低轨道卫星,为全球尤其是偏远地区提供高速、低延迟的互联网服务。自 2019 年起,Starlink 已部署数千颗卫星,旨在缩小全球数字鸿沟,推动互联网普及。该项目还为军事、航空等行业提供通信支持,带来广泛经济效益。
2D轨道图
3D轨道图
轨道高度分析图
轨道倾角分析图
轨道综合分析图
查看轨道综合分析图